レモン-パンスターズ彗星

445P/Lemmon-PanSTARRS (1998)

English version
Home page
Updated on August 6, 2022

---------------------------------------------------------------------

・ プロフィール

符号 445P/1998 W9

・ 軌道要素

                    Epoch = 1998 Jan. 27.0 TT
     T = 1998 Jan. 30.32063 TT        Peri. = 214.00492
     e = 0.4134261                    Node  = 126.38469 2000.0
     q = 2.3873870 AU                 Incl. =   1.08526
       a =  4.0700534 AU   n = 0.12003390   P =   8.21 years

・ 光度変化

        m1 = 14.0 + 5 logΔ + 10.0 log r

---------------------------------------------------------------------

軌道要素は、CBET 5149に掲載されたものです。
光度グラフはComet for Windowsで作成したものです。

---------------------------------------------------------------------

Copyright(C) Seiichi Yoshida (comet@aerith.net). All rights reserved.